Wind_Speed
26 27 27 28 29 30 27 25 24 24 24 24 24 25 24 23 22 21 19 19 18 18 17 16 16 15 15 14 14 14 14 14 13 12 11 10 10 10 10 10 9 9 8 8 8 7 8 8 7
27 28 29 30 31 30 27 25 24 25 26 26 26 26 25 25 23 22 21 20 20 19 19 18 18 17 16 16 15 15 15 15 14 13 12 12 11 11 11 11 11 10 10 10 9 9 9 9 9
29 29 31 31 31 30 27 26 26 27 28 28 28 27 27 26 25 23 23 22 21 21 20 20 20 19 18 18 17 16 15 15 15 14 14 13 13 13 12 12 12 12 11 11 10 10 10 10 10
31 32 33 33 32 29 27 27 27 28 29 29 29 29 28 27 26 25 24 23 23 23 22 22 21 21 19 18 18 17 17 16 16 15 15 15 14 13 13 13 13 13 13 12 12 12 11 11 11
33 34 34 34 32 30 28 28 29 29 30 30 30 30 29 28 28 27 26 25 25 25 24 24 23 22 21 20 19 19 18 18 17 16 16 15 15 15 14 15 14 14 14 14 14 13 13 13 13
35 36 36 35 32 31 30 30 30 31 31 31 32 32 31 30 29 29 28 27 27 27 26 26 25 24 23 22 21 21 20 19 19 18 17 17 16 16 16 16 16 16 16 16 15 15 15 15 14
37 37 37 36 35 33 32 32 32 32 32 32 33 33 32 32 31 30 30 29 29 28 28 27 26 25 25 24 23 23 22 21 20 20 19 18 18 18 18 17 17 17 17 17 16 16 16 16 16
38 39 39 38 37 35 34 35 35 34 34 34 34 34 33 33 33 32 32 31 30 30 30 30 28 27 27 26 25 24 24 23 23 22 21 20 19 19 19 19 19 19 19 19 18 18 17 17 17
41 42 41 39 38 37 36 37 37 37 37 36 36 35 34 34 34 34 33 32 32 32 31 30 30 29 28 27 26 26 26 25 25 24 23 22 21 21 20 20 20 20 20 20 20 20 19 19 19
43 44 42 40 40 40 39 39 40 40 39 38 38 37 36 36 35 35 35 34 34 33 32 32 31 31 30 28 27 27 27 27 26 26 25 24 23 22 22 22 21 21 21 21 21 21 21 21 21
44 44 43 43 43 43 42 42 42 42 41 41 40 39 39 38 37 37 36 36 35 35 34 33 33 32 31 30 29 28 28 28 27 27 27 26 25 25 24 24 23 23 23 23 23 23 23 23 22
44 44 44 44 44 45 44 44 44 44 43 42 42 42 41 40 39 38 38 37 37 37 36 35 35 34 33 32 31 30 30 29 29 28 28 27 27 26 26 26 26 25 25 24 24 24 24 24 24
44 44 44 44 45 45 46 46 46 44 44 44 44 43 42 41 41 41 40 40 39 38 38 37 36 36 35 34 33 32 32 31 30 30 29 28 28 28 28 27 27 27 27 26 26 26 26 25 26
43 44 45 45 46 46 46 45 46 45 45 45 44 44 43 43 42 42 42 41 40 40 40 39 38 38 37 36 35 34 34 33 31 31 31 31 30 30 29 29 29 29 29 28 28 28 27 27 27
42 44 45 45 46 46 47 46 46 45 45 45 45 45 44 44 44 43 43 42 42 42 41 41 40 39 39 38 37 37 36 35 34 33 32 32 32 32 31 30 30 30 30 30 30 30 29 28 28
41 43 44 44 45 46 47 47 45 45 46 45 46 46 45 45 44 44 44 43 43 43 43 42 41 40 40 39 39 38 37 37 36 35 34 34 34 33 33 32 32 31 31 31 31 31 30 30 29
42 42 43 43 44 45 46 46 46 46 46 46 46 46 46 46 45 44 44 43 43 43 44 43 42 41 41 41 40 39 39 38 38 37 36 34 35 34 34 33 33 32 32 32 32 32 32 32 31
41 42 42 42 43 44 44 45 46 46 46 46 46 46 46 46 46 45 44 44 44 44 43 44 43 43 42 42 41 40 40 40 39 39 38 37 36 36 35 34 33 33 33 32 32 33 33 33 32
41 41 42 41 42 43 44 44 45 45 45 45 45 46 46 46 46 46 45 45 45 44 44 44 44 44 43 43 42 42 42 41 41 40 40 38 37 36 36 35 35 34 34 34 33 33 33 33 33
39 40 41 41 42 43 42 44 44 44 45 45 45 45 45 45 46 46 46 46 46 45 45 45 45 45 45 44 44 43 43 43 42 41 40 39 38 37 37 37 36 35 35 35 34 34 34 34 35
38 39 40 41 41 42 42 43 43 43 44 45 45 45 45 45 45 45 45 46 46 46 45 45 45 45 45 45 45 44 44 44 43 43 42 40 40 39 38 38 37 37 36 36 36 36 35 35 36
35 36 38 39 41 42 42 44 43 44 44 45 45 45 45 45 45 45 45 45 46 46 46 46 45 45 45 45 45 45 45 44 44 44 44 42 41 41 40 39 39 38 38 38 38 37 37 37 37
32 33 35 36 38 41 41 43 43 44 44 44 45 45 45 45 46 46 46 46 46 46 46 46 46 46 46 46 46 45 45 45 44 44 44 44 43 42 42 42 41 41 40 39 39 39 39 39 39
30 31 32 34 35 39 39 41 42 42 43 43 44 45 46 46 46 46 47 47 47 46 46 47 47 47 47 46 46 46 45 45 45 45 45 45 44 44 43 42 43 43 42 41 41 41 41 41 41
28 29 30 32 34 37 36 39 40 40 41 42 43 44 46 46 46 46 47 47 47 47 47 48 48 48 47 47 47 47 47 47 46 46 45 45 45 45 44 44 44 45 44 43 42 42 42 42 42
27 27 29 31 33 35 36 37 37 38 39 40 42 43 44 45 46 47 47 47 47 48 49 48 49 48 49 49 48 48 48 48 48 47 47 46 46 46 46 45 45 45 45 45 44 43 43 43 42
25 26 27 29 32 33 35 37 37 37 38 39 40 41 43 44 45 45 46 46 47 48 49 49 49 49 50 50 50 49 49 49 49 49 48 47 47 46 46 46 45 45 45 46 46 44 44 44 43
24 25 26 27 29 32 33 35 35 35 36 37 38 39 40 42 43 45 46 46 47 47 48 49 49 50 50 51 50 50 49 49 49 49 48 48 47 47 46 46 46 46 46 46 46 45 45 45 45
23 25 26 27 28 30 32 32 33 33 33 34 36 37 38 39 41 42 43 44 45 46 47 48 49 50 50 50 50 50 49 48 48 48 48 48 48 47 47 47 47 46 46 46 46 46 45 45 46
22 24 26 27 27 28 31 31 30 32 33 34 35 35 37 38 39 41 41 42 43 44 45 47 48 49 49 49 49 49 49 49 48 48 48 49 49 49 48 47 47 46 46 46 46 45 45 45 45
Wind_Direction
251 250 249 248 248 248 247 246 244 244 243 243 243 244 244 245 244 244 242 241 242 242 241 242 243 243 242 240 238 238 237 237 237 237 236 236 237 237 238 239 241 245 248 249 251 255 254 256 259
251 250 249 249 249 249 248 247 246 245 245 243 243 244 244 245 244 243 243 241 241 240 239 240 241 242 241 240 240 239 239 238 238 238 238 238 238 240 240 241 243 246 248 250 251 254 255 258 260
252 251 250 250 250 252 251 248 246 245 245 243 243 244 244 245 244 243 243 242 241 239 238 238 239 241 242 240 241 240 240 240 240 240 239 239 240 241 240 242 244 245 246 249 251 253 255 257 259
253 252 251 250 252 252 251 248 245 245 245 244 243 244 244 244 244 244 243 243 242 239 238 237 238 239 240 240 240 241 241 241 241 242 241 240 242 243 242 243 244 244 246 248 251 254 255 257 258
252 251 251 251 252 251 249 247 245 244 244 244 244 244 244 243 244 244 243 243 242 240 238 238 238 238 239 240 241 242 243 242 241 242 243 242 243 244 244 244 245 247 248 249 250 253 255 256 258
252 251 251 252 252 250 248 247 245 244 244 245 244 244 243 243 243 243 243 243 241 240 239 238 238 238 239 240 241 241 242 243 242 242 243 244 244 245 245 246 247 248 249 250 251 253 255 257 259
253 252 252 252 251 249 247 247 246 245 244 244 245 245 243 242 243 242 243 242 240 240 240 239 238 238 239 240 240 241 241 243 243 243 244 245 245 245 245 247 249 250 250 251 252 254 255 256 258
254 253 252 252 252 250 248 247 246 245 244 244 245 245 244 243 243 243 242 242 240 240 240 239 239 239 240 240 240 240 240 242 243 243 244 245 246 246 247 248 251 251 251 252 253 254 256 257 258
255 254 254 253 252 250 248 247 246 245 245 245 245 245 244 243 242 242 242 242 241 240 240 239 238 238 239 240 240 240 240 241 242 243 244 245 246 247 248 248 251 252 253 253 253 254 256 257 258
256 256 256 254 251 249 247 246 245 244 244 244 244 245 244 243 242 241 241 241 240 240 240 239 239 238 238 239 239 240 241 242 243 244 244 245 246 246 248 250 251 253 254 255 254 254 255 257 258
257 256 255 253 251 248 247 246 245 244 243 243 244 244 244 243 242 241 241 241 240 239 239 239 239 239 239 239 239 239 241 242 243 244 245 246 247 247 249 250 252 253 255 256 257 256 256 257 257
257 255 254 252 250 248 247 246 245 244 243 243 243 243 243 242 242 241 240 240 239 239 239 239 239 239 239 240 240 239 240 242 243 244 245 246 248 248 250 251 253 254 255 256 258 259 259 259 259
256 255 253 251 249 248 246 245 244 243 243 242 242 243 242 241 240 240 240 239 239 238 238 238 239 239 239 239 239 239 240 242 244 245 245 246 248 249 251 252 253 254 255 256 258 260 260 260 260
257 254 252 250 248 247 246 246 245 243 243 242 242 241 241 240 239 239 239 239 239 238 238 238 238 239 239 239 239 239 240 241 243 245 246 247 248 250 251 252 253 254 255 256 257 259 261 261 260
257 255 251 249 248 247 247 245 244 243 242 242 241 240 240 239 239 239 238 238 238 238 238 239 239 239 240 240 240 240 241 242 243 244 246 247 249 250 252 252 253 254 254 256 257 258 260 261 260
257 254 251 249 248 247 247 246 243 243 242 242 240 240 239 239 239 239 238 237 237 238 238 238 239 240 240 240 240 240 241 242 244 245 246 247 248 250 251 252 253 253 255 256 257 258 259 261 261
257 255 252 250 249 248 247 247 243 242 242 241 241 240 239 238 238 238 238 238 238 238 238 238 239 240 240 240 240 241 242 243 244 245 246 248 249 250 251 252 253 253 255 256 257 258 259 260 261
258 255 252 250 248 248 248 248 245 243 242 241 241 241 239 238 238 238 238 239 239 239 239 239 240 240 241 241 241 241 242 244 245 246 248 249 250 250 251 251 252 254 255 257 258 258 259 260 260
258 255 252 250 248 247 248 248 246 244 243 242 241 241 240 239 239 238 238 238 238 239 239 240 240 240 241 241 242 242 243 244 245 246 248 249 251 251 250 251 252 254 255 257 258 258 259 259 260
256 254 250 248 247 247 249 247 245 244 243 242 241 240 240 238 238 239 238 238 239 239 240 240 241 241 241 241 241 242 243 244 245 246 247 249 250 250 249 250 251 253 254 255 256 257 258 259 260
256 255 251 249 247 247 249 247 245 244 243 242 241 240 240 239 238 239 239 239 239 239 240 240 241 241 241 242 241 242 243 244 245 246 246 247 248 249 249 249 250 252 254 255 256 257 258 259 261
256 253 250 248 247 247 249 248 244 243 242 242 241 241 240 239 239 238 238 238 239 239 240 240 240 241 241 242 242 242 243 243 244 245 245 246 247 249 250 251 250 251 253 255 256 257 258 260 262
253 250 248 248 248 248 247 248 245 243 243 242 242 240 240 240 239 238 238 238 238 239 239 239 240 240 241 241 242 242 242 242 243 244 245 246 247 248 250 250 251 252 253 254 255 257 258 260 261
252 249 247 247 248 249 247 248 246 244 243 242 241 241 240 240 239 238 238 238 239 239 239 239 240 240 240 241 242 242 242 242 243 244 245 246 247 248 250 251 251 252 253 254 255 257 258 260 261
251 247 247 247 246 247 246 247 247 246 243 242 241 241 240 240 239 238 238 239 239 239 239 239 240 241 241 242 242 243 243 243 243 244 245 246 247 248 249 250 251 252 253 254 255 257 258 259 260
251 248 248 251 252 251 248 248 248 247 243 242 241 241 241 240 240 240 240 241 240 240 240 240 240 241 242 242 243 244 244 244 244 244 245 246 248 249 250 251 252 253 254 255 256 257 258 259 260
252 250 250 253 255 254 251 250 248 247 245 244 242 241 242 241 241 240 241 241 241 241 241 241 241 241 242 243 243 244 244 245 245 245 246 247 247 249 250 252 253 253 254 255 256 256 257 258 259
257 252 250 251 254 254 252 251 250 249 248 246 245 243 242 241 241 241 241 241 242 242 241 241 242 242 242 243 243 244 245 246 246 246 247 247 248 249 250 251 253 254 253 254 255 256 256 257 259
260 254 252 253 253 253 252 252 250 251 249 248 246 245 243 242 241 241 242 242 242 242 242 241 241 242 243 244 244 244 245 246 246 246 246 246 248 249 250 251 252 254 254 254 255 257 256 257 258
266 261 256 253 252 252 252 252 251 251 249 248 247 247 245 244 245 245 244 243 243 243 242 241 241 242 243 244 243 243 244 245 246 246 246 247 248 249 251 251 253 254 255 254 255 256 257 258 258
Height
5796 5797 5798 5800 5801 5802 5805 5809 5812 5813 5814 5816 5817 5819 5821 5824 5827 5830 5831 5831 5832 5834 5836 5837 5838 5840 5841 5843 5844 5846 5847 5849 5850 5852 5853 5854 5856 5857 5858 5860 5861 5862 5863 5864 5865 5866 5867 5868 5869
5791 5792 5793 5794 5795 5797 5802 5805 5807 5809 5810 5811 5813 5815 5817 5819 5822 5824 5826 5827 5829 5831 5832 5834 5836 5837 5838 5840 5842 5843 5845 5846 5848 5849 5851 5852 5853 5855 5856 5858 5859 5860 5861 5863 5864 5865 5866 5866 5867
5785 5786 5787 5788 5789 5793 5798 5801 5802 5803 5804 5806 5808 5810 5812 5815 5817 5819 5821 5823 5825 5827 5829 5830 5832 5834 5835 5837 5839 5840 5842 5844 5845 5847 5848 5850 5851 5853 5854 5855 5857 5858 5859 5861 5862 5863 5864 5865 5866
5779 5780 5781 5783 5785 5789 5792 5795 5796 5797 5799 5801 5803 5805 5808 5811 5813 5815 5817 5819 5821 5823 5824 5826 5828 5830 5832 5834 5836 5838 5839 5841 5843 5844 5846 5847 5849 5850 5852 5853 5854 5856 5857 5858 5860 5861 5862 5863 5863
5771 5773 5774 5776 5780 5784 5786 5788 5789 5791 5793 5795 5798 5800 5803 5805 5807 5809 5812 5814 5816 5818 5820 5822 5824 5826 5828 5830 5832 5834 5836 5838 5839 5841 5843 5844 5846 5847 5849 5850 5852 5853 5854 5855 5857 5858 5859 5860 5861
5764 5765 5767 5770 5774 5777 5780 5781 5783 5785 5787 5789 5791 5794 5797 5800 5802 5804 5806 5809 5811 5813 5815 5818 5820 5822 5824 5826 5828 5831 5832 5834 5836 5838 5839 5841 5843 5844 5846 5847 5849 5850 5851 5853 5854 5855 5856 5857 5858
5756 5757 5759 5763 5766 5770 5773 5774 5776 5778 5780 5783 5785 5788 5791 5794 5796 5798 5801 5803 5806 5808 5810 5813 5815 5818 5820 5822 5824 5827 5829 5830 5832 5834 5836 5838 5839 5841 5843 5844 5846 5847 5848 5849 5851 5852 5853 5854 5855
5747 5749 5751 5755 5758 5762 5765 5766 5768 5771 5773 5775 5778 5781 5785 5787 5789 5792 5795 5797 5800 5802 5805 5807 5810 5813 5815 5817 5820 5822 5824 5826 5828 5830 5832 5834 5835 5837 5839 5841 5842 5844 5845 5846 5847 5849 5850 5851 5852
5737 5740 5742 5747 5751 5754 5756 5758 5760 5762 5765 5768 5771 5774 5777 5780 5782 5785 5788 5791 5794 5796 5799 5801 5804 5807 5810 5812 5815 5817 5819 5822 5824 5826 5828 5829 5831 5833 5835 5836 5838 5840 5841 5842 5844 5845 5846 5847 5848
5727 5729 5734 5739 5741 5744 5746 5748 5751 5753 5757 5760 5762 5766 5769 5772 5775 5778 5781 5784 5787 5790 5792 5795 5798 5801 5804 5807 5809 5812 5814 5817 5819 5821 5823 5825 5827 5829 5830 5832 5834 5835 5837 5838 5839 5841 5842 5843 5844
5716 5719 5724 5727 5729 5732 5735 5738 5741 5744 5748 5751 5754 5757 5760 5764 5767 5770 5774 5777 5779 5782 5786 5788 5791 5794 5798 5801 5804 5806 5809 5811 5814 5816 5818 5820 5822 5824 5826 5828 5829 5831 5832 5834 5835 5836 5837 5838 5840
5705 5708 5711 5714 5717 5720 5724 5727 5730 5733 5739 5742 5745 5748 5751 5755 5759 5762 5765 5769 5772 5775 5778 5781 5785 5788 5791 5795 5797 5800 5803 5805 5808 5810 5812 5815 5817 5819 5821 5822 5824 5826 5827 5829 5830 5831 5832 5833 5835
5693 5696 5699 5702 5705 5708 5711 5715 5719 5724 5728 5731 5734 5738 5742 5746 5750 5753 5756 5760 5764 5767 5771 5774 5777 5781 5785 5788 5791 5794 5797 5799 5802 5804 5806 5809 5811 5813 5815 5817 5818 5820 5822 5823 5825 5826 5827 5828 5829
5681 5683 5686 5689 5692 5696 5700 5704 5708 5714 5717 5720 5724 5728 5732 5736 5740 5744 5748 5752 5756 5759 5763 5766 5770 5773 5777 5781 5784 5787 5790 5793 5795 5798 5800 5803 5805 5807 5809 5810 5812 5814 5816 5817 5819 5820 5821 5822 5824
5668 5670 5673 5676 5680 5684 5688 5692 5697 5703 5706 5709 5714 5718 5722 5726 5730 5735 5739 5743 5747 5750 5754 5758 5762 5766 5769 5773 5776 5780 5783 5785 5788 5791 5793 5796 5798 5800 5802 5804 5806 5808 5809 5811 5812 5814 5815 5816 5817
5655 5656 5660 5665 5668 5672 5676 5681 5687 5690 5694 5699 5703 5707 5712 5716 5720 5725 5729 5733 5737 5741 5745 5749 5753 5757 5761 5765 5768 5772 5775 5778 5781 5784 5786 5788 5791 5793 5795 5797 5799 5801 5802 5804 5806 5807 5809 5810 5811
5642 5645 5649 5654 5657 5660 5664 5669 5675 5679 5682 5687 5692 5697 5701 5706 5710 5715 5719 5724 5728 5732 5736 5740 5745 5749 5753 5756 5760 5764 5767 5770 5773 5776 5778 5780 5783 5785 5788 5790 5792 5794 5796 5797 5799 5800 5802 5803 5804
5632 5635 5638 5642 5645 5649 5652 5658 5663 5667 5671 5677 5681 5686 5691 5696 5701 5705 5710 5714 5718 5722 5727 5731 5735 5739 5744 5748 5752 5755 5759 5762 5765 5768 5770 5772 5775 5777 5780 5782 5784 5786 5788 5790 5791 5793 5794 5795 5797
5621 5623 5626 5631 5634 5638 5642 5646 5651 5655 5660 5666 5670 5675 5680 5685 5690 5695 5699 5704 5708 5712 5717 5722 5726 5730 5734 5738 5743 5746 5750 5753 5756 5759 5761 5764 5767 5769 5772 5774 5776 5778 5780 5782 5784 5785 5787 5788 5789
5609 5612 5615 5620 5623 5627 5631 5635 5640 5644 5649 5654 5660 5665 5670 5675 5679 5684 5689 5694 5698 5703 5707 5712 5716 5720 5724 5729 5733 5737 5740 5743 5747 5750 5753 5756 5759 5761 5763 5766 5768 5770 5772 5774 5776 5777 5779 5780 5781
5599 5602 5605 5609 5613 5616 5620 5624 5629 5633 5638 5643 5649 5654 5659 5664 5669 5674 5679 5684 5688 5693 5697 5702 5706 5710 5714 5718 5723 5727 5731 5734 5737 5741 5744 5747 5749 5752 5755 5757 5759 5761 5764 5765 5767 5769 5770 5772 5773
5590 5593 5595 5598 5602 5605 5609 5612 5618 5623 5628 5633 5638 5643 5649 5654 5659 5664 5668 5673 5678 5682 5687 5691 5695 5700 5704 5708 5712 5717 5721 5724 5727 5730 5734 5737 5740 5743 5745 5748 5750 5752 5754 5756 5758 5760 5762 5763 5764
5581 5584 5586 5589 5592 5595 5599 5601 5607 5612 5617 5623 5628 5633 5638 5643 5649 5653 5658 5662 5667 5672 5676 5681 5685 5689 5693 5697 5702 5706 5710 5714 5717 5720 5724 5727 5730 5733 5735 5738 5740 5743 5745 5747 5749 5751 5752 5754 5755
5573 5575 5578 5580 5582 5585 5590 5592 5596 5602 5607 5612 5617 5622 5627 5632 5637 5642 5647 5651 5656 5661 5665 5670 5674 5678 5682 5686 5691 5695 5699 5703 5707 5710 5713 5717 5720 5723 5725 5728 5730 5733 5735 5737 5739 5741 5742 5744 5745
5565 5568 5570 5572 5573 5577 5581 5582 5587 5592 5597 5602 5607 5611 5616 5621 5626 5631 5636 5640 5645 5650 5654 5659 5663 5667 5671 5676 5680 5684 5688 5692 5696 5699 5703 5706 5709 5712 5715 5717 5720 5722 5725 5727 5728 5730 5732 5733 5735
5559 5561 5563 5565 5566 5569 5572 5574 5579 5583 5587 5592 5596 5601 5605 5610 5615 5620 5625 5629 5634 5638 5643 5647 5652 5656 5660 5664 5669 5673 5677 5681 5685 5688 5692 5695 5698 5701 5704 5706 5709 5711 5714 5716 5717 5719 5721 5723 5724
5553 5554 5557 5558 5558 5560 5562 5566 5570 5574 5578 5583 5587 5591 5595 5599 5604 5609 5614 5618 5622 5627 5631 5636 5640 5645 5649 5653 5657 5661 5665 5669 5673 5677 5680 5684 5687 5690 5693 5695 5698 5700 5702 5704 5706 5708 5710 5712 5714
5547 5549 5550 5551 5551 5552 5555 5558 5562 5566 5570 5575 5578 5581 5585 5589 5593 5598 5602 5606 5611 5615 5619 5624 5628 5633 5637 5641 5645 5649 5653 5657 5661 5665 5669 5672 5675 5678 5681 5684 5686 5689 5691 5693 5695 5697 5699 5701 5703
5541 5543 5543 5544 5545 5546 5548 5554 5555 5559 5563 5566 5569 5572 5576 5579 5583 5587 5590 5595 5599 5603 5607 5612 5616 5620 5624 5628 5633 5637 5641 5645 5649 5653 5657 5660 5663 5666 5669 5672 5675 5677 5679 5682 5684 5686 5688 5690 5692
5535 5536 5537 5539 5539 5540 5542 5549 5549 5551 5554 5557 5560 5563 5566 5570 5573 5576 5580 5584 5588 5592 5596 5600 5604 5608 5612 5616 5621 5625 5629 5633 5637 5641 5644 5648 5651 5654 5657 5660 5663 5666 5668 5670 5672 5675 5676 5678 5681